Regional Weather Roundup
Issued by NWS

Home | Current Version | Previous Version | Text Only | Print | Product List | Glossary On
Versions: 1 2 3 4 5 6 7 8 9 10 11 12 13 14 15 16 17 18 19 20 21 22 23 24 25 26 27 28 29
000
ASUS46 KPQR 230810
RWROR

OREGON REGIONAL WEATHER ROUNDUP
NATIONAL WEATHER SERVICE PORTLAND OR
100 AM PDT THU OCT 23 2014

NOTE: "FAIR" INDICATES FEW OR NO CLOUDS BELOW 12,000 FEET WITH
NO SIGNIFICANT WEATHER AND/OR OBSTRUCTIONS TO VISIBILITY.

ORZ001>013-230900-
NORTHWEST OREGON


CITY           SKY/WX    TMP DP  RH WIND       PRES   REMARKS
ASTORIA        MOCLDY    56  51  84 S9        29.71S
NEWPORT        LGT RAIN  55  54  94 S7        29.80S
PORTLAND       CLOUDY    56  54  93 SE7       29.79S
VANCOUVER WA   CLOUDY    56  53  90 SE6       29.78F
SCAPPOOSE      CLOUDY    54  50  86 S5        29.78R
HILLSBORO      CLOUDY    53  52  96 E3        29.78R
AURORA         LGT RAIN  54  52  93 SE5       29.79S
MCMINNVILLE    MOCLDY    52  51  97 CALM      29.79R
SALEM          LGT RAIN  54  52  93 E6        29.78S FOG
CORVALLIS      CLOUDY    55  54  94 S6        29.80F
EUGENE         CLOUDY    57  55  93 S8        29.81R
$$

ORZ021-028-230900-
SOUTHWEST OREGON


CITY           SKY/WX    TMP DP  RH WIND       PRES   REMARKS
NORTH BEND     CLOUDY    61  59  94 SW7       29.83S
BROOKINGS      RAIN      59  58  96 S13G21    29.89R VSB 1
ROSEBURG       LGT RAIN  59  56  89 E3        29.83R FOG
SEXTON SUMMIT  LGT RAIN  48  48 100 S13G20    29.86F VSB 1/4
MEDFORD        CLOUDY    62  50  64 SW10      29.84F
$$

ORZ009-041-230900-
COLUMBIA GORGE


CITY           SKY/WX    TMP DP  RH WIND       PRES   REMARKS
TROUTDALE      CLOUDY    56  53  90 E5        29.78S
THE DALLES     CLOUDY    58  49  72 NW13      29.76S
$$

ORZ029>031-042>050-061>064-230900-
EASTERN OREGON


CITY           SKY/WX    TMP DP  RH WIND       PRES   REMARKS
REDMOND        CLOUDY    54  44  69 S8        29.82S
BEND           CLOUDY    52  45  76 SW6       29.83F
KLAMATH FALLS  CLOUDY    48  43  82 S15       30.00R
LAKEVIEW       CLOUDY    45  43  93 S9        30.08S
HERMISTON      CLOUDY    59  51  75 CALM      29.75R
PENDLETON      CLOUDY    58  49  72 W18       29.77R
JOHN DAY       CLOUDY    58  39  49 S17G31    29.89R
MEACHAM        CLOUDY    52  39  61 CALM      29.84S
LA GRANDE      CLOUDY    57  34  41 S13G18    29.87S
BAKER CITY     CLOUDY    53  38  56 SE13G18   29.93F
BURNS          CLOUDY    49  40  71 S9        29.97F
ROME             N/A     59  29  31 S12       30.00S
ONTARIO        LGT RAIN  53  45  74 SE10      30.00R
$$



USA.gov is the U.S. government's official web portal to all federal, state and local government web resources and services.